Find OneWeb SL0380

NORAD ID: 49306 Int'l Des: 2021-090 Owner: ONEWEBN Country: UK Constellation: oneweb operational
LEOCIRCULARPOLARONEWEB_TYPE

Live Position

Loading 3D Globe...

About OneWeb SL0380

Description loading...

Upcoming Passes

Passes for default location (London). Set your location on the main map for personalized predictions.

Altitude History

Loading altitude history...

Two-Line Element Set

1 49306U 21090AD 26106.54605677 -.00000165 00000-0 -44522-3 0 9993
2 49306 87.9163 317.2655 0001560 89.8908 270.2404 13.19724436218292
Epoch: Apr 16, 2026 • Age: 8 hours

Current Status

Altitude 1190.8 km
Velocity 7.26 km/s
Sub-Earth Point 40.14°N, 25.92°W
Launch Date Oct 14, 2021
Age 4.5 years
Type internet

Technical Details

Classification Payload
Mass 148.00 kg
Dry Mass 140.00 kg
Total Mass 148.00 kg
Length 1.30 m
Diameter 1.00 m
Span 5.00 m
Shape Trapezoid+2 pan
Manufacturer ONEWUS
Bus Type ARROW
Phase Status In Orbit
Owner/State ONEWEBN/UK

Most Searched